| time (UTC) | temp C | wind direction | speed KPH | gust KPH | rain 1hr cm | rain 24hr cm | rain mn cm | humidity % | barometer mb |
| 20260504220226 | 12 | 0 | 1.6 | 0.0 | 0.00 | 0.00 | 0.00 | 76 | 1011.0 |
| 20260504213210 | 13 | 0 | 0.0 | 0.0 | 0.00 | 0.00 | 0.00 | 71 | 1011.0 |
| 20260504211942 | 15 | 0 | 0.0 | 0.0 | 0.00 | 0.00 | 0.00 | 67 | |
| 20260504210220 | 13 | 0 | 0.0 | 0.0 | 0.00 | 0.00 | 0.00 | 71 | 1011.0 |
| 20260504203209 | 15 | 0 | 0.0 | 0.0 | 0.00 | 0.00 | 0.00 | 72 | 1012.0 |
| 20260504201941 | 16 | 0 | 0.0 | 0.0 | 0.00 | 0.00 | 0.00 | 67 | |
| 20260504200219 | 15 | 120 | 1.6 | 0.0 | 0.00 | 0.00 | 0.00 | 72 | 1011.0 |
| 20260504193210 | 17 | 0 | 1.6 | 0.0 | 0.00 | 0.00 | 0.00 | 59 | 1011.0 |
| 20260504191943 | 18 | 140 | 3.2 | 0.0 | 0.00 | 0.00 | 0.00 | 52 | |
| 20260504190226 | 18 | 0 | 0.0 | 0.0 | 0.00 | 0.00 | 0.00 | 52 | 1011.0 |
| 20260504183217 | 22 | 350 | 4.8 | 0.0 | 0.00 | 0.00 | 0.00 | 43 | 1011.0 |
| 20260504181944 | 22 | 350 | 3.2 | 0.0 | 0.00 | 0.00 | 0.00 | 40 | |
| 20260504180219 | 22 | 340 | 4.8 | 0.0 | 0.00 | 0.00 | 0.00 | 43 | 1011.0 |
| 20260504173216 | 22 | 340 | 4.8 | 0.0 | 0.00 | 0.00 | 0.00 | 38 | 1011.0 |
| 20260504171945 | 23 | 340 | 3.2 | 0.0 | 0.00 | 0.00 | 0.00 | 36 | |
| 20260504170219 | 23 | 310 | 4.8 | 0.0 | 0.00 | 0.00 | 0.00 | 36 | 1011.0 |
| 20260504160227 | 23 | 290 | 4.8 | 0.0 | 0.00 | 0.00 | 0.00 | 33 | 1011.0 |
| 20260504150218 | 23 | 160 | 4.8 | 0.0 | 0.00 | 0.00 | 0.00 | 38 | 1012.0 |
| 20260504140219 | 25 | 200 | 4.8 | 0.0 | 0.00 | 0.00 | 0.00 | 33 | 1012.0 |
| 20260504130233 | 25 | 0 | 4.8 | 0.0 | 0.00 | 0.00 | 0.00 | 36 | 1013.0 |
| 20260504120226 | 22 | 0 | 3.2 | 0.0 | 0.00 | 0.00 | 0.00 | 38 | 1013.0 |
| 20260504110225 | 21 | 0 | 4.8 | 0.0 | 0.00 | 0.00 | 0.00 | 43 | 1014.0 |
| 20260504100219 | 20 | 90 | 8.0 | 0.0 | 0.00 | 0.00 | 0.00 | 42 | 1014.0 |
| 20260504081941 | 17 | 150 | 11.3 | 0.0 | 0.00 | 0.00 | 0.00 | 45 | |
| 20260504080225 | 17 | 150 | 11.3 | 0.0 | 0.00 | 0.00 | 0.00 | 45 | 1014.0 |
| 20260504070216 | 16 | 100 | 14.5 | 0.0 | 0.00 | 0.00 | 0.00 | 55 | 1014.0 |
| 20260504060227 | 15 | 0 | 3.2 | 0.0 | 0.00 | 0.00 | 0.00 | 51 | 1014.0 |
| 20260504050229 | 11 | 0 | 1.6 | 0.0 | 0.00 | 0.00 | 0.00 | 66 | 1014.0 |
| 20260504043209 | 8 | 0 | 3.2 | 0.0 | 0.00 | 0.00 | 0.00 | 76 | 1014.0 |
| 20260504041943 | 11 | 320 | 3.2 | 0.0 | 0.00 | 0.00 | 0.00 | 62 | |
| 20260504040219 | 7 | 0 | 1.6 | 0.0 | 0.00 | 0.00 | 0.00 | 75 | 1014.0 |
| 20260504033216 | 8 | 0 | 3.2 | 0.0 | 0.00 | 0.00 | 0.00 | 70 | 1014.0 |
| 20260504031941 | 11 | 300 | 3.2 | 0.0 | 0.00 | 0.00 | 0.00 | 57 | |
| 20260504030217 | 10 | 270 | 8.0 | 0.0 | 0.00 | 0.00 | 0.00 | 66 | 1014.0 |
| 20260504023209 | 12 | 0 | 3.2 | 0.0 | 0.00 | 0.00 | 0.00 | 58 | 1013.0 |
| 20260504021943 | 12 | 50 | 3.2 | 0.0 | 0.00 | 0.00 | 0.00 | 50 | |
| 20260504020226 | 12 | 0 | 1.6 | 0.0 | 0.00 | 0.00 | 0.00 | 58 | 1013.0 |
| 20260504013209 | 12 | 20 | 4.8 | 0.0 | 0.00 | 0.00 | 0.00 | 58 | 1013.0 |
| 20260504011941 | 12 | 10 | 3.2 | 0.0 | 0.00 | 0.00 | 0.00 | 54 | |
| 20260504010220 | 12 | 350 | 4.8 | 0.0 | 0.00 | 0.00 | 0.00 | 58 | 1013.0 |
| 20260504003210 | 12 | 110 | 12.9 | 0.0 | 0.00 | 0.00 | 0.00 | 58 | 1013.0 |
| 20260504001942 | 13 | 90 | 8.0 | 0.0 | 0.00 | 0.00 | 0.00 | 47 | |
| 20260504000226 | 12 | 100 | 9.7 | 0.0 | 0.00 | 0.00 | 0.00 | 58 | 1013.0 |
| 20260503233210 | 13 | 30 | 8.0 | 0.0 | 0.00 | 0.00 | 0.00 | 50 | 1013.0 |
| 20260503231944 | 15 | 40 | 8.0 | 0.0 | 0.00 | 0.00 | 0.00 | 47 | |
| 20260503230218 | 13 | 0 | 3.2 | 0.0 | 0.00 | 0.00 | 0.00 | 50 | 1013.0 |
| 20260503223210 | 16 | 70 | 12.9 | 0.0 | 0.00 | 0.00 | 0.00 | 44 | 1013.0 |
| 20260503221942 | 16 | 70 | 11.3 | 0.0 | 0.00 | 0.00 | 0.00 | 44 |